Date String (YYYY-MM-DD hh:mm:ss) UTC,Instrument flags,Ambient pressure (hPa),Sample flow (lpm),Bypass flow (lpm),Sample temperature (°C),Ambient temperature (°C),ASC tube jacket temperature (°C),LED temperature (°C),Box temperature (°C),Sample RH (%),Span deviation,Mass concentration (μg/m³),Mass concentration (μg/m³),Mass concentration (μg/m³)
DateTimeUTC,F1_M11,P_M11,Q1_M11,Q2_M11,T1_M11,T2_M11,T3_M11,T4_M11,T5_M11,U1_M11,ZSPAN_M11,X0_M11,X2_M11,X1_M11
2023-02-06 20:00:00,,0819.5,5.04,0.00,23.1,21.8,00.0,31.9,24.9,11.2,0000.0,0008.23,0004.41,0004.02
2023-02-06 20:01:00,,0819.5,4.98,0.00,23.1,21.8,00.0,31.9,24.9,11.5,0000.0,0008.00,0004.44,0004.03
2023-02-06 20:02:00,,0819.5,4.96,0.00,23.1,21.9,00.0,31.9,25.0,11.5,0000.0,0007.84,0004.45,0004.05
2023-02-06 20:03:00,,0819.5,5.02,0.00,23.1,21.8,00.0,31.9,25.0,11.3,0000.0,0007.84,0004.43,0004.04
2023-02-06 20:04:00,,0819.5,5.06,0.00,23.1,21.8,00.0,31.9,25.0,11.7,0000.0,0008.41,0004.45,0004.05
2023-02-06 20:05:00,,0819.6,4.96,0.00,23.1,21.7,00.0,32.0,24.9,12.0,0000.0,0008.39,0004.47,0004.07
2023-02-06 20:06:00,,0819.5,4.98,0.00,23.1,21.6,00.0,31.9,24.9,11.9,0000.0,0008.42,0004.50,0004.08
2023-02-06 20:07:00,,0819.5,4.99,0.00,23.1,21.6,00.0,31.9,24.9,11.5,0000.0,0008.26,0004.52,0004.08
2023-02-06 20:08:00,,0819.6,4.98,0.00,23.1,21.6,00.0,31.9,24.9,11.1,0000.0,0008.48,0004.52,0004.10
2023-02-06 20:09:00,,0819.7,5.05,0.00,23.1,21.7,00.0,31.9,24.9,11.3,0000.0,0008.53,0004.52,0004.11
2023-02-06 20:10:00,,0819.6,4.96,0.00,23.1,21.7,00.0,31.9,24.9,11.6,0000.0,0008.51,0004.52,0004.12
2023-02-06 20:11:00,,0819.7,4.98,0.00,23.1,21.7,00.0,31.9,24.9,11.6,0000.0,0008.49,0004.53,0004.12
2023-02-06 20:12:00,,0819.7,5.05,0.00,23.1,21.6,00.0,31.9,24.9,11.8,0000.0,0008.51,0004.54,0004.12
2023-02-06 20:13:00,,0819.7,5.02,0.00,23.1,21.6,00.0,31.9,24.9,12.2,0000.0,0008.57,0004.56,0004.13
2023-02-06 20:14:00,,0819.7,4.96,0.00,23.1,21.6,00.0,31.9,24.9,12.3,0000.0,0008.83,0004.61,0004.15
2023-02-06 20:15:00,,0819.7,5.04,0.00,23.0,21.5,00.0,31.9,24.8,12.4,0000.0,0008.78,0004.63,0004.18
2023-02-06 20:16:00,,0819.8,4.99,0.00,23.0,21.4,00.0,31.9,24.8,12.5,0000.0,0009.38,0004.67,0004.20
2023-02-06 20:17:00,,0819.9,4.99,0.00,23.0,21.4,00.0,31.9,24.8,12.3,0000.0,0009.45,0004.66,0004.22
2023-02-06 20:18:00,,0819.8,4.96,0.00,23.0,21.5,00.0,31.9,24.8,12.1,0000.0,0009.51,0004.69,0004.25
2023-02-06 20:19:00,,0819.8,4.98,0.00,23.0,21.5,00.0,31.9,24.8,11.8,0000.0,0009.68,0004.73,0004.29
2023-02-06 20:20:00,,0819.9,5.03,0.00,23.0,21.5,00.0,31.9,24.8,11.8,0000.0,0009.86,0004.76,0004.32
2023-02-06 20:21:00,,0819.9,5.02,0.00,23.0,21.5,00.0,31.9,24.8,11.5,0000.0,0009.90,0004.80,0004.34
2023-02-06 20:22:00,,0819.9,5.00,0.00,23.0,21.4,00.0,31.9,24.7,11.5,0000.0,0009.86,0004.79,0004.36
2023-02-06 20:23:00,,0819.9,4.98,0.00,22.9,21.3,00.0,31.8,24.7,11.7,0000.0,0009.81,0004.79,0004.37
2023-02-06 20:24:00,,0820.0,4.97,0.00,22.9,21.2,00.0,31.8,24.6,11.8,0000.0,0009.80,0004.79,0004.39
2023-02-06 20:25:00,,0819.9,5.00,0.00,22.9,21.3,00.0,31.8,24.6,12.1,0000.0,0010.06,0004.78,0004.41
2023-02-06 20:26:00,,0820.0,5.01,0.00,22.9,21.2,00.0,31.8,24.6,12.2,0000.0,0010.04,0004.80,0004.42
2023-02-06 20:27:00,,0819.9,5.01,0.00,22.8,21.1,00.0,31.8,24.6,12.2,0000.0,0009.50,0004.80,0004.43
2023-02-06 20:28:00,,0819.9,5.01,0.00,22.8,21.1,00.0,31.8,24.5,12.2,0000.0,0009.34,0004.81,0004.44
2023-02-06 20:29:00,,0819.9,4.99,0.00,22.8,21.1,00.0,31.8,24.5,12.0,0000.0,0009.39,0004.84,0004.44
2023-02-06 20:30:00,,0819.9,4.98,0.00,22.8,21.0,00.0,31.8,24.5,12.0,0000.0,0009.42,0004.84,0004.45
2023-02-06 20:31:00,,0819.9,4.97,0.00,22.7,21.0,00.0,31.7,24.4,11.8,0000.0,0009.33,0004.86,0004.45
2023-02-06 20:32:00,,0819.9,5.04,0.00,22.7,20.9,00.0,31.7,24.4,11.9,0000.0,0009.29,0004.84,0004.46
2023-02-06 20:33:00,,0819.9,5.01,0.00,22.7,20.9,00.0,31.7,24.3,11.9,0000.0,0009.33,0004.87,0004.46
2023-02-06 20:34:00,,0819.9,4.93,0.00,22.7,20.9,00.0,31.7,24.3,12.0,0000.0,0009.38,0004.89,0004.47
2023-02-06 20:35:00,,0820.0,5.03,0.00,22.6,20.9,00.0,31.7,24.3,12.0,0000.0,0009.42,0004.92,0004.49
2023-02-06 20:36:00,,0820.0,5.03,0.00,22.6,20.8,00.0,31.6,24.3,12.2,0000.0,0009.14,0004.94,0004.50
2023-02-06 20:37:00,,0820.0,4.94,0.00,22.6,20.9,00.0,31.6,24.3,12.2,0000.0,0008.50,0004.95,0004.51
2023-02-06 20:38:00,,0820.1,5.09,0.00,22.6,21.0,00.0,31.6,24.3,12.1,0000.0,0008.57,0004.97,0004.50
2023-02-06 20:39:00,,0820.1,4.98,0.00,22.6,21.1,00.0,31.6,24.4,12.2,0000.0,0008.78,0004.98,0004.50
2023-02-06 20:40:00,,0820.2,4.97,0.00,22.6,21.1,00.0,31.6,24.4,12.4,0000.0,0009.02,0005.01,0004.51
2023-02-06 20:41:00,,0820.2,5.04,0.00,22.6,21.1,00.0,31.6,24.4,12.7,0000.0,0008.86,0005.03,0004.52
2023-02-06 20:42:00,,0820.2,5.03,0.00,22.6,21.1,00.0,31.6,24.4,12.8,0000.0,0008.66,0005.02,0004.52
2023-02-06 20:43:00,,0820.2,4.94,0.00,22.6,21.1,00.0,31.5,24.4,12.8,0000.0,0008.63,0005.02,0004.52
2023-02-06 20:44:00,,0820.2,5.06,0.00,22.6,21.1,00.0,31.5,24.4,12.7,0000.0,0008.60,0005.01,0004.51
2023-02-06 20:45:00,,0820.2,4.97,0.00,22.6,21.1,00.0,31.5,24.4,12.1,0000.0,0008.97,0005.01,0004.51
2023-02-06 20:46:00,,0820.2,5.00,0.00,22.6,21.2,00.0,31.5,24.4,12.1,0000.0,0009.02,0005.03,0004.50
2023-02-06 20:47:00,,0820.2,5.03,0.00,22.6,21.2,00.0,31.5,24.4,11.9,0000.0,0009.00,0005.02,0004.50
2023-02-06 20:48:00,,0820.2,5.01,0.00,22.6,21.2,00.0,31.5,24.4,11.6,0000.0,0009.18,0005.01,0004.49
2023-02-06 20:49:00,,0820.2,4.99,0.00,22.6,21.3,00.0,31.5,24.4,11.4,0000.0,0009.28,0004.97,0004.49
2023-02-06 20:50:00,,0820.2,5.10,0.00,22.6,21.3,00.0,31.5,24.4,11.2,0000.0,0009.11,0004.96,0004.48
2023-02-06 20:51:00,,0820.2,4.96,0.00,22.6,21.3,00.0,31.5,24.4,10.9,0000.0,0008.86,0004.95,0004.47
2023-02-06 20:52:00,,0820.2,5.01,0.00,22.6,21.3,00.0,31.5,24.4,10.7,0000.0,0008.75,0004.91,0004.45
2023-02-06 20:53:00,,0820.2,4.98,0.00,22.6,21.2,00.0,31.5,24.4,11.2,0000.0,0008.72,0004.89,0004.45
2023-02-06 20:54:00,,0820.3,5.01,0.00,22.6,21.2,00.0,31.5,24.4,11.2,0000.0,0009.04,0004.90,0004.45
2023-02-06 20:55:00,,0820.3,5.02,0.00,22.6,21.3,00.0,31.5,24.4,11.1,0000.0,0009.75,0004.91,0004.47
2023-02-06 20:56:00,,0820.3,5.01,0.00,22.6,21.2,00.0,31.5,24.4,10.9,0000.0,0009.37,0004.90,0004.48
2023-02-06 20:57:00,,0820.3,4.96,0.00,22.6,21.2,00.0,31.5,24.4,10.6,0000.0,0009.39,0004.91,0004.49
2023-02-06 20:58:00,,0820.3,4.99,0.00,22.6,21.2,00.0,31.5,24.4,11.0,0000.0,0009.42,0004.94,0004.51
2023-02-06 20:59:00,,0820.4,4.98,0.00,22.6,21.2,00.0,31.5,24.4,11.3,0000.0,0009.30,0004.95,0004.54
